Location: Acton
(51.4942°N, 0.2232°W)
Time: 14:11:41
(UTC+00:00)

Okean 1-7 Rocket - Pass Details

Date: 25 January 2021
Orbit: 615 x 650 km, 82.5° (Epoch: 28 February)

Event Time Altitude Azimuth Distance (km) Brightness Sun altitude
Rises 19:24:44 0° 237° (WSW) 2,961 7.9 -25.6°
Reaches altitude 10° 19:27:46 10° 259° (W) 2,058 7.2 -26.1°
Maximum altitude 19:30:40 16° 298° (WNW) 1,673 6.5 -26.5°
Drops below altitude 10° 19:33:35 10° 338° (NNW) 2,068 6.5 -27.0°
Sets 19:36:39 0° 360° (N) 2,982 7.1 -27.5°
